Change the Weather History Date:

Tuesday, October 2, 2012

  Actual Average Record
Temperature  
Mean Temperature 68 °F 60 °F  
Max Temperature 80 °F 70 °F 88 °F (1919)
Min Temperature 56 °F 50 °F 32 °F (1974)
Degree Days  
Heating Degree Days 0 6  
Month to date heating degree days 8 12  
Since 1 July heating degree days 94 81  
Cooling Degree Days 3 1  
Month to date cooling degree days 3 3  
Year to date cooling degree days 1424 1014  
Growing Degree Days 18 (Base 50)    
Moisture  
Dew Point 61 °F    
Average Humidity 81    
Maximum Humidity 100    
Minimum Humidity 62    
Precipitation  
Precipitation 0.22 in 0.09 in 1.67 in (1881)
Month to date precipitation 0.40 0.17  
Year to date precipitation 27.25 30.70  
Snow  
Snow 0.00 in 0.00 in - ()
Month to date snowfall 0.0 0.0  
Since 1 July snowfall 0.0 0.0  
Since 1 September snowfall 0.0 0.0  
Snow Depth 0.00 in    
Sea Level Pressure  
Sea Level Pressure 29.78 in    
Wind  
Wind Speed 6 mph (ENE)    
Max Wind Speed 16 mph    
Max Gust Speed 20 mph    
Visibility 8 miles    
Events Rain    
T = Trace of Precipitation, MM = Missing Value Source: NWS Daily Summary

Daily Weather History Graph

Daily Weather History Graph

Search for Another Location

Airport or City:

Trip Planner

Search our weather history database for the weather conditions in past years. The results will help you decide how hot, cold, wet, or windy it might be!

Date:

Astronomy

Oct. 02, 2012 Rise Set
Actual Time 7:29 AM EDT 7:11 PM EDT
Civil Twilight 7:02 AM EDT 7:38 PM EDT
Nautical Twilight 6:30 AM EDT 8:09 PM EDT
Astronomical Twilight 5:59 AM EDT 8:41 PM EDT
Moon 8:23 PM EDT (10/2) 9:55 AM EDT (10/2)
Length of Visible Light 12h 36m
Length of Day
11h 42m
Waning Gibbous, 94% of the Moon is Illuminated
Oct 2
Waning Gibbous
Oct 8
Last Quarter
Oct 15
New
Oct 21
First Quarter
Oct 29
Full

Hourly Weather History & Observations

Time (EDT) Temp. Dew Point Humidity Pressure Visibility Wind Dir Wind Speed Gust Speed Precip Events Conditions
12:51 AM 55.9 °F 55.9 °F 100% 29.75 in 10.0 mi ENE 5.8 mph - 0.00 in   Overcast
1:51 AM 55.9 °F 55.9 °F 100% 29.73 in 10.0 mi ENE 5.8 mph - 0.00 in   Mostly Cloudy
2:51 AM 57.2 °F 53.6 °F 88% 29.73 in 7.0 mi East 8.1 mph - N/A Rain Light Rain
3:28 AM 57.2 °F 53.6 °F 88% 29.72 in 10.0 mi ENE 6.9 mph - 0.00 in   Overcast
3:51 AM 57.0 °F 54.0 °F 89% 29.72 in 10.0 mi East 4.6 mph - 0.00 in   Overcast
4:46 AM 57.2 °F 55.4 °F 94% 29.73 in 9.0 mi East 3.5 mph - N/A   Overcast
4:51 AM 57.9 °F 55.0 °F 90% 29.73 in 9.0 mi Calm Calm - N/A   Overcast
5:51 AM 57.9 °F 55.9 °F 93% 29.73 in 8.0 mi East 6.9 mph - N/A   Overcast
6:33 AM 59.0 °F 55.4 °F 88% 29.74 in 7.0 mi East 5.8 mph - N/A   Overcast
6:51 AM 59.0 °F 55.9 °F 90% 29.74 in 7.0 mi East 6.9 mph - N/A   Overcast
7:51 AM 59.0 °F 57.0 °F 93% 29.77 in 6.0 mi East 4.6 mph - N/A   Overcast
8:51 AM 60.1 °F 57.9 °F 93% 29.78 in 6.0 mi East 4.6 mph - N/A   Overcast
9:51 AM 63.0 °F 60.1 °F 90% 29.79 in 8.0 mi East 5.8 mph - N/A   Overcast
10:51 AM 66.0 °F 62.1 °F 87% 29.78 in 10.0 mi ESE 5.8 mph - N/A   Mostly Cloudy
11:22 AM 66.2 °F 62.6 °F 88% 29.79 in 10.0 mi ESE 5.8 mph - N/A   Overcast
11:51 AM 71.1 °F 63.0 °F 75% 29.78 in 10.0 mi ESE 5.8 mph - N/A   Mostly Cloudy
12:51 PM 73.0 °F 64.0 °F 73% 29.77 in 10.0 mi ESE 3.5 mph - N/A   Mostly Cloudy
1:51 PM 75.9 °F 64.9 °F 69% 29.75 in 10.0 mi Variable 4.6 mph - N/A   Mostly Cloudy
2:51 PM 75.9 °F 64.9 °F 69% 29.74 in 10.0 mi ESE 4.6 mph - N/A   Mostly Cloudy
3:19 PM 75.2 °F 64.4 °F 69% 29.75 in 10.0 mi ENE 5.8 mph - N/A   Mostly Cloudy
3:30 PM 77.0 °F 64.4 °F 65% 29.74 in 10.0 mi NE 5.8 mph - N/A   Mostly Cloudy
3:51 PM 78.1 °F 64.9 °F 64% 29.73 in 10.0 mi East 9.2 mph - N/A   Mostly Cloudy
4:51 PM 79.0 °F 66.0 °F 64% 29.73 in 10.0 mi ENE 9.2 mph - N/A   Mostly Cloudy
5:51 PM 75.9 °F 66.0 °F 71% 29.74 in 10.0 mi ESE 10.4 mph 17.3 mph N/A   Mostly Cloudy
6:51 PM 75.9 °F 66.0 °F 71% 29.75 in 10.0 mi East 8.1 mph - N/A   Mostly Cloudy
7:17 PM 71.6 °F 66.2 °F 83% 29.80 in 2.0 mi West 15.0 mph 19.6 mph 0.06 in Rain Heavy Rain
7:29 PM 69.8 °F 66.2 °F 88% 29.80 in 4.0 mi NW 10.4 mph - 0.22 in Rain Light Rain
7:51 PM 69.1 °F 66.0 °F 90% 29.80 in 10.0 mi NW 8.1 mph - 0.22 in   Mostly Cloudy
7:58 PM 68.0 °F 66.2 °F 94% 29.81 in 10.0 mi NW 8.1 mph - N/A   Mostly Cloudy
8:51 PM 66.9 °F 64.0 °F 90% 29.84 in 7.0 mi West 4.6 mph - N/A   Mostly Cloudy
8:58 PM 66.2 °F 64.4 °F 94% 29.85 in 6.0 mi West 6.9 mph - N/A   Mostly Cloudy
9:51 PM 64.9 °F 63.0 °F 93% 29.86 in 6.0 mi NNW 4.6 mph - N/A   Mostly Cloudy
9:58 PM 64.4 °F 62.6 °F 94% 29.86 in 6.0 mi NNW 4.6 mph - N/A   Mostly Cloudy
10:51 PM 64.9 °F 63.0 °F 93% 29.87 in 5.0 mi North 5.8 mph - N/A   Mostly Cloudy
10:58 PM 64.4 °F 62.6 °F 94% 29.88 in 4.0 mi Calm Calm - N/A   Overcast
11:06 PM 64.4 °F 62.6 °F 94% 29.88 in 4.0 mi Calm Calm - N/A   Overcast
11:29 PM 64.4 °F 62.6 °F 94% 29.89 in 0.5 mi Calm Calm - N/A   Overcast
11:45 PM 64.4 °F 62.6 °F 94% 29.89 in 0.2 mi Calm Calm - N/A   Overcast
11:51 PM 64.0 °F 63.0 °F 96% 29.88 in 0.2 mi Calm Calm - N/A   Overcast